Time,TemperatureF,DewpointF,PressureIn,WindDirection,WindDirectionDegrees,WindSpeedMPH,WindSpeedGustMPH,Humidity,HourlyPrecipIn,Conditions,Clouds,dailyrainin,SoftwareType,DateUTC
2013-11-12 00:01:00,40.7,0.0,29.79,North,0,0.0,0.0,0,0.00,,,0.00,WUHU216HW,2013-11-12 05:01:00,
2013-11-12 00:02:00,40.7,0.0,29.79,North,0,0.0,0.0,0,0.00,,,0.00,WUHU216HW,2013-11-12 05:02:00,
2013-11-12 00:07:00,40.7,0.0,29.78,North,0,0.0,0.0,0,0.00,,,0.00,WUHU216HW,2013-11-12 05:07:00,
2013-11-12 00:12:00,40.5,0.0,29.78,North,0,0.0,0.0,0,0.00,,,0.00,WUHU216HW,2013-11-12 05:12:00,
2013-11-12 00:17:00,40.3,0.0,29.78,North,0,0.0,0.0,0,0.00,,,0.00,WUHU216HW,2013-11-12 05:17:00,
2013-11-12 00:22:00,40.1,0.0,29.78,North,0,0.0,0.0,0,0.00,,,0.00,WUHU216HW,2013-11-12 05:22:00,
2013-11-12 00:27:00,40.0,0.0,29.77,North,0,0.0,0.0,0,0.00,,,0.00,WUHU216HW,2013-11-12 05:27:00,
2013-11-12 00:32:00,40.1,0.0,29.77,North,0,0.0,0.0,0,0.00,,,0.00,WUHU216HW,2013-11-12 05:32:00,
2013-11-12 00:37:00,40.1,0.0,29.77,North,0,0.0,0.0,0,0.00,,,0.00,WUHU216HW,2013-11-12 05:37:00,
2013-11-12 00:42:00,40.1,0.0,29.77,North,0,0.0,0.0,0,0.00,,,0.00,WUHU216HW,2013-11-12 05:42:00,
2013-11-12 00:47:00,40.1,0.0,29.77,North,0,0.0,0.0,0,0.00,,,0.00,WUHU216HW,2013-11-12 05:47:00,
2013-11-12 00:52:00,40.1,0.0,29.77,North,0,0.0,0.0,0,0.00,,,0.00,WUHU216HW,2013-11-12 05:52:00,
2013-11-12 00:57:00,40.3,0.0,29.77,North,0,0.0,0.0,0,0.00,,,0.00,WUHU216HW,2013-11-12 05:57:00,
2013-11-12 01:02:00,40.7,0.0,29.77,North,0,0.0,0.0,0,0.00,,,0.00,WUHU216HW,2013-11-12 06:02:00,
2013-11-12 01:07:00,40.9,0.0,29.77,North,0,0.0,0.0,0,0.00,,,0.00,WUHU216HW,2013-11-12 06:07:00,
2013-11-12 01:12:00,41.4,0.0,29.77,North,0,0.0,0.0,0,0.00,,,0.00,WUHU216HW,2013-11-12 06:12:00,
2013-11-12 01:17:00,41.8,0.0,29.77,North,0,0.0,0.0,0,0.00,,,0.00,WUHU216HW,2013-11-12 06:17:00,
2013-11-12 01:22:00,42.1,0.0,29.78,North,0,0.0,0.0,0,0.00,,,0.00,WUHU216HW,2013-11-12 06:22:00,
2013-11-12 01:27:00,42.5,0.0,29.77,North,0,0.0,0.0,0,0.00,,,0.00,WUHU216HW,2013-11-12 06:27:00,
2013-11-12 01:32:00,42.5,0.0,29.78,North,0,0.0,0.0,0,0.00,,,0.00,WUHU216HW,2013-11-12 06:32:00,
2013-11-12 01:37:00,42.7,0.0,29.78,North,0,0.0,0.0,0,0.00,,,0.00,WUHU216HW,2013-11-12 06:37:00,
2013-11-12 01:42:00,42.8,0.0,29.77,North,0,0.0,0.0,0,0.00,,,0.00,WUHU216HW,2013-11-12 06:42:00,
2013-11-12 01:47:00,42.8,0.0,29.78,North,0,0.0,0.0,0,0.00,,,0.00,WUHU216HW,2013-11-12 06:47:00,
2013-11-12 01:52:00,42.8,0.0,29.78,North,0,0.0,0.0,0,0.00,,,0.00,WUHU216HW,2013-11-12 06:52:00,
2013-11-12 01:57:00,42.8,0.0,29.78,North,0,0.0,0.0,0,0.00,,,0.00,WUHU216HW,2013-11-12 06:57:00,
2013-11-12 02:02:00,43.0,0.0,29.78,North,0,0.0,0.0,0,0.00,,,0.00,WUHU216HW,2013-11-12 07:02:00,
2013-11-12 02:07:00,43.4,0.0,29.78,North,0,0.0,0.0,0,0.00,,,0.00,WUHU216HW,2013-11-12 07:07:00,
2013-11-12 02:12:00,43.6,0.0,29.78,North,0,0.0,0.0,0,0.00,,,0.00,WUHU216HW,2013-11-12 07:12:00,
2013-11-12 02:17:00,43.9,0.0,29.78,North,0,0.0,0.0,0,0.00,,,0.00,WUHU216HW,2013-11-12 07:17:00,
2013-11-12 02:22:00,44.3,0.0,29.77,SSE,158,4.3,6.3,0,0.00,,,0.00,WUHU216HW,2013-11-12 07:22:00,
2013-11-12 02:27:00,44.3,0.0,29.77,South,180,6.9,6.9,0,0.00,,,0.00,WUHU216HW,2013-11-12 07:27:00,
2013-11-12 02:32:00,44.3,0.0,29.77,NW,315,4.0,6.9,0,0.00,,,0.00,WUHU216HW,2013-11-12 07:32:00,
2013-11-12 02:37:00,44.5,0.0,29.77,SW,225,2.9,6.9,0,0.00,,,0.00,WUHU216HW,2013-11-12 07:37:00,
2013-11-12 02:42:00,44.6,0.0,29.78,WSW,248,1.8,6.5,0,0.00,,,0.00,WUHU216HW,2013-11-12 07:42:00,
2013-11-12 02:47:00,44.6,0.0,29.78,NW,315,7.6,7.6,0,0.00,,,0.00,WUHU216HW,2013-11-12 07:47:00,
2013-11-12 02:52:00,44.6,0.0,29.77,South,180,1.6,7.6,0,0.00,,,0.00,WUHU216HW,2013-11-12 07:52:00,
2013-11-12 02:57:00,44.6,0.0,29.77,NW,315,1.8,7.6,0,0.00,,,0.00,WUHU216HW,2013-11-12 07:57:00,
2013-11-12 03:02:00,44.5,0.0,29.77,WNW,293,5.1,6.0,0,0.00,,,0.00,WUHU216HW,2013-11-12 08:02:00,
2013-11-12 03:07:00,44.5,0.0,29.77,West,270,2.2,6.0,0,0.00,,,0.00,WUHU216HW,2013-11-12 08:07:00,
2013-11-12 03:12:00,44.3,0.0,29.77,SSW,203,3.1,5.1,0,0.00,,,0.00,WUHU216HW,2013-11-12 08:12:00,
2013-11-12 03:17:00,44.3,0.0,29.77,West,270,5.4,5.4,0,0.00,,,0.00,WUHU216HW,2013-11-12 08:17:00,
2013-11-12 03:22:00,44.3,0.0,29.77,WSW,248,2.0,5.4,0,0.00,,,0.00,WUHU216HW,2013-11-12 08:22:00,
2013-11-12 03:27:00,44.3,0.0,29.77,South,180,4.0,6.0,0,0.00,,,0.00,WUHU216HW,2013-11-12 08:27:00,
2013-11-12 03:32:00,44.1,0.0,29.77,SSW,203,0.4,6.0,0,0.00,,,0.00,WUHU216HW,2013-11-12 08:32:00,
2013-11-12 03:37:00,44.1,0.0,29.77,WSW,248,2.2,2.2,0,0.00,,,0.00,WUHU216HW,2013-11-12 08:37:00,
2013-11-12 03:42:00,43.9,0.0,29.77,SE,135,1.8,4.7,0,0.00,,,0.00,WUHU216HW,2013-11-12 08:42:00,
2013-11-12 03:47:00,43.9,0.0,29.77,SW,225,1.3,4.7,0,0.00,,,0.00,WUHU216HW,2013-11-12 08:47:00,
2013-11-12 03:52:00,43.9,0.0,29.78,WNW,293,1.8,3.6,0,0.00,,,0.00,WUHU216HW,2013-11-12 08:52:00,
2013-11-12 03:57:00,43.7,0.0,29.78,North,0,0.0,1.8,0,0.00,,,0.00,WUHU216HW,2013-11-12 08:57:00,
2013-11-12 04:02:00,43.9,0.0,29.78,North,0,0.0,1.8,0,0.00,,,0.00,WUHU216HW,2013-11-12 09:02:00,
2013-11-12 04:07:00,43.9,0.0,29.78,North,0,0.0,0.0,0,0.00,,,0.00,WUHU216HW,2013-11-12 09:07:00,
2013-11-12 04:12:00,43.9,0.0,29.78,North,0,0.0,0.0,0,0.00,,,0.00,WUHU216HW,2013-11-12 09:12:00,
2013-11-12 04:17:00,43.9,0.0,29.78,North,0,0.0,0.0,0,0.00,,,0.00,WUHU216HW,2013-11-12 09:17:00,
2013-11-12 04:22:00,43.9,0.0,29.78,North,0,0.0,0.0,0,0.00,,,0.00,WUHU216HW,2013-11-12 09:22:00,
2013-11-12 04:27:00,43.9,0.0,29.79,North,0,0.0,0.0,0,0.00,,,0.00,WUHU216HW,2013-11-12 09:27:00,
2013-11-12 04:32:00,43.9,0.0,29.80,North,0,0.0,0.0,0,0.00,,,0.00,WUHU216HW,2013-11-12 09:32:00,
2013-11-12 04:37:00,43.0,0.0,29.81,North,0,0.0,0.0,0,0.00,,,0.00,WUHU216HW,2013-11-12 09:37:00,
2013-11-12 04:42:00,40.9,0.0,29.82,North,0,0.0,0.0,0,0.00,,,0.00,WUHU216HW,2013-11-12 09:42:00,
2013-11-12 04:47:00,39.2,0.0,29.82,North,0,0.0,0.0,0,0.00,,,0.00,WUHU216HW,2013-11-12 09:47:00,
2013-11-12 04:52:00,38.5,0.0,29.83,North,0,0.0,0.0,0,0.00,,,0.00,WUHU216HW,2013-11-12 09:52:00,
2013-11-12 04:57:00,38.2,0.0,29.83,North,0,0.0,0.0,0,0.00,,,0.00,WUHU216HW,2013-11-12 09:57:00,
2013-11-12 05:02:00,38.0,0.0,29.83,North,0,0.0,0.0,0,0.00,,,0.00,WUHU216HW,2013-11-12 10:02:00,
2013-11-12 05:07:00,37.8,0.0,29.83,North,0,0.0,0.0,0,0.00,,,0.00,WUHU216HW,2013-11-12 10:07:00,
2013-11-12 05:12:00,37.6,0.0,29.84,NNW,338,2.9,5.4,0,0.00,,,0.00,WUHU216HW,2013-11-12 10:12:00,
2013-11-12 05:17:00,37.4,0.0,29.85,NW,315,4.7,9.2,0,0.00,,,0.00,WUHU216HW,2013-11-12 10:17:00,
2013-11-12 05:22:00,37.1,0.0,29.85,NNW,338,6.5,9.2,0,0.00,,,0.00,WUHU216HW,2013-11-12 10:22:00,
2013-11-12 05:27:00,36.7,0.0,29.86,NW,315,4.0,8.7,0,0.00,,,0.00,WUHU216HW,2013-11-12 10:27:00,
2013-11-12 05:32:00,36.4,0.0,29.85,WNW,293,6.9,8.7,0,0.00,,,0.00,WUHU216HW,2013-11-12 10:32:00,
2013-11-12 05:37:00,36.2,0.0,29.86,NW,315,6.3,9.4,0,0.00,,,0.00,WUHU216HW,2013-11-12 10:37:00,
2013-11-12 05:42:00,35.8,0.0,29.86,WNW,293,3.1,9.4,0,0.00,,,0.00,WUHU216HW,2013-11-12 10:42:00,
2013-11-12 05:47:00,35.5,0.0,29.86,WSW,248,5.8,10.5,0,0.00,,,0.00,WUHU216HW,2013-11-12 10:47:00,
2013-11-12 05:52:00,35.1,0.0,29.87,WNW,293,6.9,10.5,0,0.00,,,0.00,WUHU216HW,2013-11-12 10:52:00,
2013-11-12 05:57:00,34.9,0.0,29.87,NNW,338,7.2,18.6,0,0.00,,,0.00,WUHU216HW,2013-11-12 10:57:00,
2013-11-12 06:02:00,34.7,0.0,29.87,WNW,293,10.1,18.6,0,0.00,,,0.00,WUHU216HW,2013-11-12 11:02:00,
2013-11-12 06:07:00,34.6,0.0,29.87,NW,315,1.8,12.1,0,0.00,,,0.00,WUHU216HW,2013-11-12 11:07:00,
2013-11-12 06:12:00,34.4,0.0,29.87,NW,315,9.4,12.5,0,0.00,,,0.00,WUHU216HW,2013-11-12 11:12:00,
2013-11-12 06:17:00,34.2,0.0,29.87,NW,315,4.0,12.5,0,0.00,,,0.00,WUHU216HW,2013-11-12 11:17:00,
2013-11-12 06:22:00,34.2,0.0,29.87,NNW,338,6.9,10.5,0,0.00,,,0.00,WUHU216HW,2013-11-12 11:22:00,
2013-11-12 06:27:00,34.0,0.0,29.87,WNW,293,9.4,11.6,0,0.00,,,0.00,WUHU216HW,2013-11-12 11:27:00,
2013-11-12 06:32:00,34.0,0.0,29.87,WNW,293,4.3,11.6,0,0.00,,,0.00,WUHU216HW,2013-11-12 11:32:00,
2013-11-12 06:37:00,34.0,0.0,29.88,WSW,248,2.9,9.4,0,0.00,,,0.00,WUHU216HW,2013-11-12 11:37:00,
2013-11-12 06:42:00,33.8,0.0,29.89,NNW,338,2.5,8.3,0,0.00,,,0.00,WUHU216HW,2013-11-12 11:42:00,
2013-11-12 06:47:00,33.8,0.0,29.89,WNW,293,4.5,8.3,0,0.00,,,0.00,WUHU216HW,2013-11-12 11:47:00,
2013-11-12 06:52:00,33.8,0.0,29.89,SSW,203,3.1,7.6,0,0.00,,,0.00,WUHU216HW,2013-11-12 11:52:00,
2013-11-12 06:57:00,33.7,0.0,29.90,NNW,338,10.5,12.1,0,0.00,,,0.00,WUHU216HW,2013-11-12 11:57:00,
2013-11-12 07:02:00,33.7,0.0,29.90,WNW,293,3.6,12.1,0,0.00,,,0.00,WUHU216HW,2013-11-12 12:02:00,
2013-11-12 07:07:00,33.5,0.0,29.90,WSW,248,6.0,13.4,0,0.00,,,0.00,WUHU216HW,2013-11-12 12:07:00,
2013-11-12 07:12:00,33.5,0.0,29.90,West,270,8.3,13.4,0,0.00,,,0.00,WUHU216HW,2013-11-12 12:12:00,
2013-11-12 07:17:00,33.3,0.0,29.90,NW,315,4.0,12.3,0,0.00,,,0.00,WUHU216HW,2013-11-12 12:17:00,
2013-11-12 07:22:00,33.3,0.0,29.90,West,270,4.9,8.7,0,0.00,,,0.00,WUHU216HW,2013-11-12 12:22:00,
2013-11-12 07:27:00,33.1,0.0,29.90,West,270,6.7,13.4,0,0.00,,,0.00,WUHU216HW,2013-11-12 12:27:00,
2013-11-12 07:32:00,33.1,0.0,29.91,WSW,248,11.0,13.6,0,0.00,,,0.00,WUHU216HW,2013-11-12 12:32:00,
2013-11-12 07:37:00,33.3,0.0,29.91,NW,315,3.6,13.6,0,0.00,,,0.00,WUHU216HW,2013-11-12 12:37:00,
2013-11-12 07:42:00,33.1,0.0,29.91,WNW,293,3.8,11.4,0,0.00,,,0.00,WUHU216HW,2013-11-12 12:42:00,
2013-11-12 07:47:00,33.1,0.0,29.91,West,270,12.3,12.5,0,0.00,,,0.00,WUHU216HW,2013-11-12 12:47:00,
2013-11-12 07:52:00,32.9,0.0,29.92,West,270,4.3,12.5,0,0.00,,,0.00,WUHU216HW,2013-11-12 12:52:00,
2013-11-12 07:57:00,32.9,0.0,29.92,WSW,248,4.7,12.3,0,0.00,,,0.00,WUHU216HW,2013-11-12 12:57:00,
2013-11-12 08:02:00,32.8,0.0,29.92,WSW,248,5.1,6.5,0,0.00,,,0.00,WUHU216HW,2013-11-12 13:02:00,
2013-11-12 08:07:00,32.8,0.0,29.92,NW,315,4.5,7.6,0,0.00,,,0.00,WUHU216HW,2013-11-12 13:07:00,
2013-11-12 08:12:00,32.8,0.0,29.92,NW,315,4.3,10.7,0,0.00,,,0.00,WUHU216HW,2013-11-12 13:12:00,
2013-11-12 08:17:00,32.8,0.0,29.92,WNW,293,8.5,10.7,0,0.00,,,0.00,WUHU216HW,2013-11-12 13:17:00,
2013-11-12 08:22:00,32.6,0.0,29.92,WNW,293,6.9,8.5,0,0.00,,,0.00,WUHU216HW,2013-11-12 13:22:00,
2013-11-12 08:27:00,32.6,0.0,29.93,NW,315,5.6,7.4,0,0.00,,,0.00,WUHU216HW,2013-11-12 13:27:00,
2013-11-12 08:32:00,32.6,0.0,29.93,NW,315,3.4,7.4,0,0.00,,,0.00,WUHU216HW,2013-11-12 13:32:00,
2013-11-12 08:37:00,32.6,0.0,29.93,West,270,5.4,13.9,0,0.00,,,0.00,WUHU216HW,2013-11-12 13:37:00,
2013-11-12 08:42:00,32.6,0.0,29.94,NW,315,5.8,13.9,0,0.00,,,0.00,WUHU216HW,2013-11-12 13:42:00,
2013-11-12 08:47:00,32.4,0.0,29.94,NW,315,5.8,9.8,0,0.00,,,0.00,WUHU216HW,2013-11-12 13:47:00,
2013-11-12 08:52:00,32.4,0.0,29.94,NNW,338,3.8,11.2,0,0.00,,,0.00,WUHU216HW,2013-11-12 13:52:00,
2013-11-12 08:57:00,32.4,0.0,29.94,NW,315,5.1,11.2,0,0.00,,,0.00,WUHU216HW,2013-11-12 13:57:00,
2013-11-12 09:02:00,32.4,0.0,29.94,NW,315,4.7,10.5,0,0.00,,,0.00,WUHU216HW,2013-11-12 14:02:00,
2013-11-12 09:07:00,32.2,0.0,29.94,NW,315,9.2,9.4,0,0.00,,,0.00,WUHU216HW,2013-11-12 14:07:00,
2013-11-12 09:12:00,32.0,0.0,29.95,NNW,338,11.4,11.4,0,0.00,,,0.00,WUHU216HW,2013-11-12 14:12:00,
2013-11-12 09:17:00,32.0,0.0,29.95,WSW,248,3.8,11.4,0,0.00,,,0.00,WUHU216HW,2013-11-12 14:17:00,
2013-11-12 09:22:00,32.0,0.0,29.94,NW,315,9.2,14.5,0,0.00,,,0.00,WUHU216HW,2013-11-12 14:22:00,
2013-11-12 09:27:00,32.0,0.0,29.94,NW,315,2.5,14.5,0,0.00,,,0.00,WUHU216HW,2013-11-12 14:27:00,
2013-11-12 09:32:00,32.0,0.0,29.95,WSW,248,6.0,11.9,0,0.00,,,0.00,WUHU216HW,2013-11-12 14:32:00,
2013-11-12 09:37:00,32.2,0.0,29.95,WNW,293,10.3,10.3,0,0.00,,,0.00,WUHU216HW,2013-11-12 14:37:00,
2013-11-12 09:42:00,32.0,0.0,29.95,WNW,293,4.0,10.7,0,0.00,,,0.00,WUHU216HW,2013-11-12 14:42:00,
2013-11-12 09:47:00,32.0,0.0,29.95,WNW,293,6.3,10.7,0,0.00,,,0.00,WUHU216HW,2013-11-12 14:47:00,
2013-11-12 09:52:00,32.0,0.0,29.96,WNW,293,1.8,10.7,0,0.00,,,0.00,WUHU216HW,2013-11-12 14:52:00,
2013-11-12 09:57:00,32.0,0.0,29.96,WNW,293,6.3,11.2,0,0.00,,,0.00,WUHU216HW,2013-11-12 14:57:00,
2013-11-12 10:02:00,32.0,0.0,29.96,WNW,293,2.5,11.2,0,0.00,,,0.00,WUHU216HW,2013-11-12 15:02:00,
2013-11-12 10:07:00,32.0,0.0,29.96,West,270,9.2,9.2,0,0.00,,,0.00,WUHU216HW,2013-11-12 15:07:00,
2013-11-12 10:12:00,32.0,0.0,29.96,NW,315,4.7,9.4,0,0.00,,,0.00,WUHU216HW,2013-11-12 15:12:00,
2013-11-12 10:17:00,32.0,0.0,29.96,WNW,293,6.5,9.4,0,0.00,,,0.00,WUHU216HW,2013-11-12 15:17:00,
2013-11-12 10:22:00,32.0,0.0,29.97,NW,315,6.3,9.2,0,0.00,,,0.00,WUHU216HW,2013-11-12 15:22:00,
2013-11-12 10:27:00,32.0,0.0,29.97,WSW,248,5.6,13.4,0,0.00,,,0.00,WUHU216HW,2013-11-12 15:27:00,
2013-11-12 10:32:00,31.9,0.0,29.97,WSW,248,10.3,15.0,0,0.00,,,0.00,WUHU216HW,2013-11-12 15:32:00,
2013-11-12 10:37:00,31.9,0.0,29.97,WNW,293,12.8,16.1,0,0.00,,,0.00,WUHU216HW,2013-11-12 15:37:00,
2013-11-12 10:42:00,31.9,0.0,29.98,WNW,293,9.4,16.1,0,0.00,,,0.00,WUHU216HW,2013-11-12 15:42:00,
2013-11-12 10:47:00,31.7,0.0,29.97,NW,315,9.8,13.9,0,0.00,,,0.00,WUHU216HW,2013-11-12 15:47:00,
2013-11-12 10:52:00,31.7,0.0,29.97,NW,315,4.0,9.8,0,0.00,,,0.00,WUHU216HW,2013-11-12 15:52:00,
2013-11-12 10:57:00,31.7,0.0,29.98,WNW,293,6.0,11.9,0,0.00,,,0.00,WUHU216HW,2013-11-12 15:57:00,
2013-11-12 11:02:00,31.7,0.0,29.97,NW,315,2.9,11.9,0,0.00,,,0.00,WUHU216HW,2013-11-12 16:02:00,
2013-11-12 11:07:00,31.7,0.0,29.97,West,270,7.6,8.7,0,0.00,,,0.00,WUHU216HW,2013-11-12 16:07:00,
2013-11-12 11:12:00,31.7,0.0,29.97,SW,225,8.7,12.8,0,0.00,,,0.00,WUHU216HW,2013-11-12 16:12:00,
2013-11-12 11:17:00,31.9,0.0,29.97,NW,315,8.3,12.8,0,0.00,,,0.00,WUHU216HW,2013-11-12 16:17:00,
2013-11-12 11:22:00,31.5,0.0,29.97,WNW,293,6.5,10.5,0,0.00,,,0.00,WUHU216HW,2013-11-12 16:22:00,
2013-11-12 11:27:00,31.5,0.0,29.97,WNW,293,9.4,10.5,0,0.00,,,0.00,WUHU216HW,2013-11-12 16:27:00,
2013-11-12 11:32:00,31.3,0.0,29.96,West,270,4.5,9.4,0,0.00,,,0.00,WUHU216HW,2013-11-12 16:32:00,
2013-11-12 11:37:00,31.3,0.0,29.97,WSW,248,1.3,8.5,0,0.00,,,0.00,WUHU216HW,2013-11-12 16:37:00,
2013-11-12 11:42:00,31.3,0.0,29.96,WNW,293,10.5,12.1,0,0.00,,,0.00,WUHU216HW,2013-11-12 16:42:00,
2013-11-12 11:47:00,31.3,0.0,29.96,NNW,338,6.5,12.1,0,0.00,,,0.00,WUHU216HW,2013-11-12 16:47:00,
2013-11-12 11:52:00,31.1,0.0,29.97,WSW,248,7.8,10.5,0,0.00,,,0.00,WUHU216HW,2013-11-12 16:52:00,
2013-11-12 11:57:00,31.3,0.0,29.97,West,270,4.0,7.8,0,0.00,,,0.00,WUHU216HW,2013-11-12 16:57:00,
2013-11-12 12:02:00,31.3,0.0,29.97,WNW,293,7.2,7.8,0,0.00,,,0.00,WUHU216HW,2013-11-12 17:02:00,
2013-11-12 12:07:00,31.3,0.0,29.97,WNW,293,7.4,10.3,0,0.00,,,0.00,WUHU216HW,2013-11-12 17:07:00,
2013-11-12 12:12:00,31.3,0.0,29.97,WNW,293,9.2,10.3,0,0.00,,,0.00,WUHU216HW,2013-11-12 17:12:00,
2013-11-12 12:17:00,31.3,0.0,29.96,North,0,0.0,9.6,0,0.00,,,0.00,WUHU216HW,2013-11-12 17:17:00,
2013-11-12 12:22:00,31.3,0.0,29.97,North,0,0.0,9.2,0,0.00,,,0.00,WUHU216HW,2013-11-12 17:22:00,
2013-11-12 12:27:00,31.3,0.0,29.97,North,0,0.0,0.0,0,0.00,,,0.00,WUHU216HW,2013-11-12 17:27:00,
2013-11-12 12:32:00,31.3,0.0,29.97,North,0,0.0,0.0,0,0.00,,,0.00,WUHU216HW,2013-11-12 17:32:00,
2013-11-12 12:37:00,31.3,0.0,29.96,North,0,0.0,0.0,0,0.00,,,0.00,WUHU216HW,2013-11-12 17:37:00,
2013-11-12 12:42:00,31.3,0.0,29.97,North,0,0.0,0.0,0,0.00,,,0.00,WUHU216HW,2013-11-12 17:42:00,
2013-11-12 12:47:00,31.1,0.0,29.97,North,0,0.0,0.0,0,0.00,,,0.00,WUHU216HW,2013-11-12 17:47:00,
2013-11-12 12:52:00,31.1,0.0,29.97,North,0,0.0,0.0,0,0.00,,,0.00,WUHU216HW,2013-11-12 17:52:00,
2013-11-12 12:57:00,31.1,0.0,29.97,North,0,0.0,0.0,0,0.00,,,0.00,WUHU216HW,2013-11-12 17:57:00,
2013-11-12 13:02:00,31.3,0.0,29.97,North,0,0.0,0.0,0,0.00,,,0.00,WUHU216HW,2013-11-12 18:02:00,
2013-11-12 13:07:00,31.3,0.0,29.98,North,0,0.0,0.0,0,0.00,,,0.00,WUHU216HW,2013-11-12 18:07:00,
2013-11-12 13:12:00,31.1,0.0,29.98,North,0,0.0,0.0,0,0.00,,,0.00,WUHU216HW,2013-11-12 18:12:00,
2013-11-12 13:17:00,31.1,0.0,29.98,North,0,0.0,0.0,0,0.00,,,0.00,WUHU216HW,2013-11-12 18:17:00,
2013-11-12 13:22:00,31.1,0.0,29.98,North,0,0.0,0.0,0,0.00,,,0.00,WUHU216HW,2013-11-12 18:22:00,
2013-11-12 13:27:00,31.3,0.0,29.97,North,0,0.0,0.0,0,0.00,,,0.00,WUHU216HW,2013-11-12 18:27:00,
2013-11-12 13:32:00,31.1,0.0,29.97,WNW,293,2.9,6.9,0,0.00,,,0.00,WUHU216HW,2013-11-12 18:32:00,
2013-11-12 13:37:00,31.1,0.0,29.97,NW,315,8.7,13.4,0,0.00,,,0.00,WUHU216HW,2013-11-12 18:37:00,
2013-11-12 13:42:00,31.0,0.0,29.97,North,0,7.8,13.4,0,0.00,,,0.00,WUHU216HW,2013-11-12 18:42:00,
2013-11-12 13:47:00,31.0,0.0,29.97,NW,315,10.7,15.4,0,0.00,,,0.00,WUHU216HW,2013-11-12 18:47:00,
2013-11-12 13:52:00,31.0,0.0,29.97,WNW,293,5.4,15.4,0,0.00,,,0.00,WUHU216HW,2013-11-12 18:52:00,
2013-11-12 13:57:00,31.1,0.0,29.97,WNW,293,8.7,10.7,0,0.00,,,0.00,WUHU216HW,2013-11-12 18:57:00,
2013-11-12 14:02:00,31.3,0.0,29.98,West,270,7.6,12.3,0,0.00,,,0.00,WUHU216HW,2013-11-12 19:02:00,
2013-11-12 14:07:00,31.3,0.0,29.98,NW,315,2.5,12.3,0,0.00,,,0.00,WUHU216HW,2013-11-12 19:07:00,
2013-11-12 14:12:00,31.3,0.0,29.98,NW,315,4.3,10.1,0,0.00,,,0.00,WUHU216HW,2013-11-12 19:12:00,
2013-11-12 14:17:00,31.3,0.0,29.98,NW,315,4.7,11.6,0,0.00,,,0.00,WUHU216HW,2013-11-12 19:17:00,
2013-11-12 14:22:00,31.3,0.0,29.98,North,0,0.0,11.6,0,0.00,,,0.00,WUHU216HW,2013-11-12 19:22:00,
2013-11-12 14:27:00,31.7,0.0,29.98,North,0,0.0,4.7,0,0.00,,,0.00,WUHU216HW,2013-11-12 19:27:00,
2013-11-12 14:32:00,32.0,0.0,29.98,North,0,0.0,0.0,0,0.00,,,0.00,WUHU216HW,2013-11-12 19:32:00,
2013-11-12 14:37:00,32.2,0.0,29.98,North,0,0.0,0.0,0,0.00,,,0.00,WUHU216HW,2013-11-12 19:37:00,
2013-11-12 14:42:00,32.0,0.0,29.98,North,0,0.0,0.0,0,0.00,,,0.00,WUHU216HW,2013-11-12 19:42:00,
2013-11-12 14:47:00,32.0,0.0,29.98,North,0,0.0,0.0,0,0.00,,,0.00,WUHU216HW,2013-11-12 19:47:00,
2013-11-12 14:52:00,32.0,0.0,29.99,North,0,0.0,0.0,0,0.00,,,0.00,WUHU216HW,2013-11-12 19:52:00,
2013-11-12 14:57:00,32.0,0.0,29.99,North,0,0.0,0.0,0,0.00,,,0.00,WUHU216HW,2013-11-12 19:57:00,
2013-11-12 15:02:00,32.2,0.0,29.99,North,0,0.0,0.0,0,0.00,,,0.00,WUHU216HW,2013-11-12 20:02:00,
2013-11-12 15:07:00,32.0,0.0,29.99,North,0,0.0,0.0,0,0.00,,,0.00,WUHU216HW,2013-11-12 20:07:00,
2013-11-12 15:12:00,32.2,0.0,29.99,North,0,0.0,0.0,0,0.00,,,0.00,WUHU216HW,2013-11-12 20:12:00,
2013-11-12 15:17:00,32.0,0.0,29.98,North,0,0.0,0.0,0,0.00,,,0.00,WUHU216HW,2013-11-12 20:17:00,
2013-11-12 15:22:00,32.2,0.0,29.99,North,0,0.0,0.0,0,0.00,,,0.00,WUHU216HW,2013-11-12 20:22:00,
2013-11-12 15:27:00,32.2,0.0,29.99,North,0,0.0,0.0,0,0.00,,,0.00,WUHU216HW,2013-11-12 20:27:00,
2013-11-12 15:32:00,32.0,0.0,29.99,North,0,0.0,0.0,0,0.00,,,0.00,WUHU216HW,2013-11-12 20:32:00,
2013-11-12 15:37:00,32.0,0.0,29.99,NNW,338,4.7,4.7,0,0.00,,,0.00,WUHU216HW,2013-11-12 20:37:00,
2013-11-12 15:42:00,32.0,0.0,29.99,WNW,293,4.0,4.7,0,0.00,,,0.00,WUHU216HW,2013-11-12 20:42:00,
2013-11-12 15:47:00,32.0,0.0,29.99,NNW,338,4.0,4.7,0,0.00,,,0.00,WUHU216HW,2013-11-12 20:47:00,
2013-11-12 15:52:00,32.0,0.0,30.00,NNW,338,2.0,4.0,0,0.00,,,0.00,WUHU216HW,2013-11-12 20:52:00,
2013-11-12 15:57:00,31.9,0.0,30.00,North,0,0.0,4.0,0,0.00,,,0.00,WUHU216HW,2013-11-12 20:57:00,
2013-11-12 16:02:00,31.7,0.0,30.00,WNW,293,4.7,4.7,0,0.00,,,0.00,WUHU216HW,2013-11-12 21:02:00,
2013-11-12 16:07:00,31.9,0.0,30.00,WNW,293,7.4,8.7,0,0.00,,,0.00,WUHU216HW,2013-11-12 21:07:00,
2013-11-12 16:12:00,31.9,0.0,30.00,WNW,293,5.4,14.1,0,0.00,,,0.00,WUHU216HW,2013-11-12 21:12:00,
2013-11-12 16:17:00,31.7,0.0,30.00,NNW,338,6.5,14.1,0,0.00,,,0.00,WUHU216HW,2013-11-12 21:17:00,
2013-11-12 16:22:00,31.3,0.0,30.00,NNW,338,1.1,8.7,0,0.00,,,0.00,WUHU216HW,2013-11-12 21:22:00,
2013-11-12 16:27:00,31.1,0.0,30.01,NW,315,8.3,8.3,0,0.00,,,0.00,WUHU216HW,2013-11-12 21:27:00,
2013-11-12 16:32:00,31.1,0.0,30.01,WNW,293,5.1,8.3,0,0.00,,,0.00,WUHU216HW,2013-11-12 21:32:00,
2013-11-12 16:37:00,31.0,0.0,30.01,WNW,293,4.7,10.5,0,0.00,,,0.00,WUHU216HW,2013-11-12 21:37:00,
2013-11-12 16:42:00,30.8,0.0,30.01,WSW,248,5.4,10.5,0,0.00,,,0.00,WUHU216HW,2013-11-12 21:42:00,
2013-11-12 16:47:00,30.6,0.0,30.02,WNW,293,9.2,9.2,0,0.00,,,0.00,WUHU216HW,2013-11-12 21:47:00,
2013-11-12 16:52:00,30.4,0.0,30.02,WNW,293,4.7,9.2,0,0.00,,,0.00,WUHU216HW,2013-11-12 21:52:00,
2013-11-12 16:57:00,30.4,0.0,30.02,West,270,6.5,9.8,0,0.00,,,0.00,WUHU216HW,2013-11-12 21:57:00,
2013-11-12 17:02:00,30.2,0.0,30.02,WSW,248,3.8,9.8,0,0.00,,,0.00,WUHU216HW,2013-11-12 22:02:00,
2013-11-12 17:07:00,30.2,0.0,30.03,North,0,2.5,8.3,0,0.00,,,0.00,WUHU216HW,2013-11-12 22:07:00,
2013-11-12 17:12:00,30.2,0.0,30.03,WNW,293,4.0,4.0,0,0.00,,,0.00,WUHU216HW,2013-11-12 22:12:00,
2013-11-12 17:17:00,30.2,0.0,30.03,SW,225,1.8,6.3,0,0.00,,,0.00,WUHU216HW,2013-11-12 22:17:00,
2013-11-12 17:22:00,30.1,0.0,30.03,NW,315,6.5,8.7,0,0.00,,,0.00,WUHU216HW,2013-11-12 22:22:00,
2013-11-12 17:27:00,29.9,0.0,30.04,NW,315,6.9,8.7,0,0.00,,,0.00,WUHU216HW,2013-11-12 22:27:00,
2013-11-12 17:32:00,29.7,0.0,30.04,West,270,2.5,6.9,0,0.00,,,0.00,WUHU216HW,2013-11-12 22:32:00,
2013-11-12 17:37:00,29.5,0.0,30.04,SSW,203,1.1,6.9,0,0.00,,,0.00,WUHU216HW,2013-11-12 22:37:00,
2013-11-12 17:42:00,29.3,0.0,30.04,NNW,338,0.7,2.5,0,0.00,,,0.00,WUHU216HW,2013-11-12 22:42:00,
2013-11-12 17:47:00,29.2,0.0,30.04,North,0,0.0,1.1,0,0.00,,,0.00,WUHU216HW,2013-11-12 22:47:00,
2013-11-12 17:52:00,29.0,0.0,30.04,West,270,4.7,4.7,0,0.00,,,0.00,WUHU216HW,2013-11-12 22:52:00,
2013-11-12 17:57:00,28.8,0.0,30.04,WNW,293,1.8,4.7,0,0.00,,,0.00,WUHU216HW,2013-11-12 22:57:00,
2013-11-12 18:02:00,28.6,0.0,30.04,North,0,0.0,4.7,0,0.00,,,0.00,WUHU216HW,2013-11-12 23:02:00,
2013-11-12 18:07:00,28.6,0.0,30.04,North,0,0.0,1.8,0,0.00,,,0.00,WUHU216HW,2013-11-12 23:07:00,
2013-11-12 18:12:00,29.0,0.0,30.05,North,0,0.0,0.0,0,0.00,,,0.00,WUHU216HW,2013-11-12 23:12:00,
2013-11-12 18:17:00,29.0,0.0,30.05,North,0,0.0,0.0,0,0.00,,,0.00,WUHU216HW,2013-11-12 23:17:00,
2013-11-12 18:22:00,28.6,0.0,30.05,North,0,0.0,0.0,0,0.00,,,0.00,WUHU216HW,2013-11-12 23:22:00,
2013-11-12 18:27:00,28.4,0.0,30.05,North,0,0.0,0.0,0,0.00,,,0.00,WUHU216HW,2013-11-12 23:27:00,
2013-11-12 18:32:00,28.1,0.0,30.05,North,0,0.0,0.0,0,0.00,,,0.00,WUHU216HW,2013-11-12 23:32:00,
2013-11-12 18:37:00,28.1,0.0,30.05,North,0,0.0,0.0,0,0.00,,,0.00,WUHU216HW,2013-11-12 23:37:00,
2013-11-12 18:42:00,28.1,0.0,30.06,North,0,0.0,0.0,0,0.00,,,0.00,WUHU216HW,2013-11-12 23:42:00,
2013-11-12 18:47:00,28.1,0.0,30.05,North,0,0.0,0.0,0,0.00,,,0.00,WUHU216HW,2013-11-12 23:47:00,
2013-11-12 18:52:00,27.7,0.0,30.05,North,0,0.0,0.0,0,0.00,,,0.00,WUHU216HW,2013-11-12 23:52:00,
2013-11-12 18:57:00,27.7,0.0,30.05,North,0,0.0,0.0,0,0.00,,,0.00,WUHU216HW,2013-11-12 23:57:00,
2013-11-12 19:02:00,27.7,0.0,30.05,North,0,0.0,0.0,0,0.00,,,0.00,WUHU216HW,2013-11-13 00:02:00,
2013-11-12 19:07:00,27.5,0.0,30.05,North,0,0.0,0.0,0,0.00,,,0.00,WUHU216HW,2013-11-13 00:07:00,
2013-11-12 19:12:00,27.5,0.0,30.05,North,0,0.0,0.0,0,0.00,,,0.00,WUHU216HW,2013-11-13 00:12:00,
2013-11-12 19:17:00,27.5,0.0,30.05,West,270,10.1,10.1,0,0.00,,,0.00,WUHU216HW,2013-11-13 00:17:00,
2013-11-12 19:22:00,27.7,0.0,30.05,West,270,3.4,10.1,0,0.00,,,0.00,WUHU216HW,2013-11-13 00:22:00,
2013-11-12 19:27:00,27.7,0.0,30.05,North,0,0.0,10.1,0,0.00,,,0.00,WUHU216HW,2013-11-13 00:27:00,
2013-11-12 19:32:00,27.7,0.0,30.05,WNW,293,3.4,3.4,0,0.00,,,0.00,WUHU216HW,2013-11-13 00:32:00,
2013-11-12 19:37:00,27.9,0.0,30.05,WNW,293,10.3,10.3,0,0.00,,,0.00,WUHU216HW,2013-11-13 00:37:00,
2013-11-12 19:42:00,28.1,0.0,30.05,North,0,0.0,10.3,0,0.00,,,0.00,WUHU216HW,2013-11-13 00:42:00,
2013-11-12 19:47:00,28.1,0.0,30.05,West,270,2.7,10.3,0,0.00,,,0.00,WUHU216HW,2013-11-13 00:47:00,
2013-11-12 19:52:00,28.1,0.0,30.05,North,0,0.0,2.7,0,0.00,,,0.00,WUHU216HW,2013-11-13 00:52:00,
2013-11-12 19:57:00,28.1,0.0,30.05,North,0,0.0,2.7,0,0.00,,,0.00,WUHU216HW,2013-11-13 00:57:00,
2013-11-12 20:02:00,28.3,0.0,30.05,North,0,0.0,0.0,0,0.00,,,0.00,WUHU216HW,2013-11-13 01:02:00,
2013-11-12 20:07:00,28.3,0.0,30.05,North,0,0.0,0.0,0,0.00,,,0.00,WUHU216HW,2013-11-13 01:07:00,
2013-11-12 20:12:00,28.3,0.0,30.05,North,0,0.0,0.0,0,0.00,,,0.00,WUHU216HW,2013-11-13 01:12:00,
2013-11-12 20:17:00,27.9,0.0,30.05,North,0,0.0,0.0,0,0.00,,,0.00,WUHU216HW,2013-11-13 01:17:00,
2013-11-12 20:22:00,27.7,0.0,30.05,North,0,0.0,0.0,0,0.00,,,0.00,WUHU216HW,2013-11-13 01:22:00,
2013-11-12 20:27:00,27.7,0.0,30.05,North,0,0.0,0.0,0,0.00,,,0.00,WUHU216HW,2013-11-13 01:27:00,
2013-11-12 20:32:00,27.7,0.0,30.06,North,0,0.0,0.0,0,0.00,,,0.00,WUHU216HW,2013-11-13 01:32:00,
2013-11-12 20:37:00,27.9,0.0,30.06,North,0,0.0,0.0,0,0.00,,,0.00,WUHU216HW,2013-11-13 01:37:00,
2013-11-12 20:42:00,27.7,0.0,30.06,North,0,0.0,0.0,0,0.00,,,0.00,WUHU216HW,2013-11-13 01:42:00,
2013-11-12 20:47:00,27.7,0.0,30.07,North,0,0.0,0.0,0,0.00,,,0.00,WUHU216HW,2013-11-13 01:47:00,
2013-11-12 20:52:00,27.5,0.0,30.07,North,0,0.0,0.0,0,0.00,,,0.00,WUHU216HW,2013-11-13 01:52:00,
2013-11-12 20:57:00,27.5,0.0,30.06,North,0,0.0,0.0,0,0.00,,,0.00,WUHU216HW,2013-11-13 01:57:00,
2013-11-12 21:02:00,27.5,0.0,30.06,North,0,0.0,0.0,0,0.00,,,0.00,WUHU216HW,2013-11-13 02:02:00,
2013-11-12 21:07:00,27.4,0.0,30.06,North,0,0.0,0.0,0,0.00,,,0.00,WUHU216HW,2013-11-13 02:07:00,
2013-11-12 21:12:00,27.5,0.0,30.06,North,0,9.2,9.2,0,0.00,,,0.00,WUHU216HW,2013-11-13 02:12:00,
2013-11-12 21:17:00,27.7,0.0,30.06,North,0,0.0,9.2,0,0.00,,,0.00,WUHU216HW,2013-11-13 02:17:00,
2013-11-12 21:22:00,27.9,0.0,30.06,North,0,0.0,0.0,0,0.00,,,0.00,WUHU216HW,2013-11-13 02:22:00,
2013-11-12 21:27:00,27.9,0.0,30.06,North,0,0.0,0.0,0,0.00,,,0.00,WUHU216HW,2013-11-13 02:27:00,
2013-11-12 21:32:00,27.7,0.0,30.06,North,0,0.0,0.0,0,0.00,,,0.00,WUHU216HW,2013-11-13 02:32:00,
2013-11-12 21:37:00,27.5,0.0,30.06,North,0,0.0,0.0,0,0.00,,,0.00,WUHU216HW,2013-11-13 02:37:00,
2013-11-12 21:42:00,27.4,0.0,30.06,North,0,0.0,0.0,0,0.00,,,0.00,WUHU216HW,2013-11-13 02:42:00,
2013-11-12 21:47:00,27.2,0.0,30.07,North,0,0.0,0.0,0,0.00,,,0.00,WUHU216HW,2013-11-13 02:47:00,
2013-11-12 21:52:00,27.0,0.0,30.07,North,0,0.0,0.0,0,0.00,,,0.00,WUHU216HW,2013-11-13 02:52:00,
2013-11-12 21:57:00,27.0,0.0,30.07,North,0,0.0,0.0,0,0.00,,,0.00,WUHU216HW,2013-11-13 02:57:00,
2013-11-12 22:02:00,26.8,0.0,30.06,North,0,0.0,0.0,0,0.00,,,0.00,WUHU216HW,2013-11-13 03:02:00,
2013-11-12 22:07:00,26.8,0.0,30.06,North,0,0.0,0.0,0,0.00,,,0.00,WUHU216HW,2013-11-13 03:07:00,
2013-11-12 22:12:00,26.6,0.0,30.06,North,0,0.0,0.0,0,0.00,,,0.00,WUHU216HW,2013-11-13 03:12:00,
2013-11-12 22:17:00,26.5,0.0,30.06,North,0,0.0,0.0,0,0.00,,,0.00,WUHU216HW,2013-11-13 03:17:00,
2013-11-12 22:22:00,26.5,0.0,30.06,North,0,0.0,0.0,0,0.00,,,0.00,WUHU216HW,2013-11-13 03:22:00,
2013-11-12 22:27:00,26.3,0.0,30.06,North,0,0.0,0.0,0,0.00,,,0.00,WUHU216HW,2013-11-13 03:27:00,
2013-11-12 22:32:00,26.3,0.0,30.06,North,0,0.0,0.0,0,0.00,,,0.00,WUHU216HW,2013-11-13 03:32:00,
2013-11-12 22:37:00,26.1,0.0,30.06,North,0,0.0,0.0,0,0.00,,,0.00,WUHU216HW,2013-11-13 03:37:00,
2013-11-12 22:42:00,25.9,0.0,30.06,North,0,0.0,0.0,0,0.00,,,0.00,WUHU216HW,2013-11-13 03:42:00,
2013-11-12 22:47:00,25.7,0.0,30.06,North,0,0.0,0.0,0,0.00,,,0.00,WUHU216HW,2013-11-13 03:47:00,
2013-11-12 22:52:00,25.6,0.0,30.07,North,0,0.0,0.0,0,0.00,,,0.00,WUHU216HW,2013-11-13 03:52:00,
2013-11-12 22:57:00,25.4,0.0,30.06,North,0,0.0,0.0,0,0.00,,,0.00,WUHU216HW,2013-11-13 03:57:00,
2013-11-12 23:02:00,25.2,0.0,30.06,North,0,0.0,0.0,0,0.00,,,0.00,WUHU216HW,2013-11-13 04:02:00,
2013-11-12 23:07:00,25.2,0.0,30.06,North,0,0.0,0.0,0,0.00,,,0.00,WUHU216HW,2013-11-13 04:07:00,
2013-11-12 23:12:00,25.4,0.0,30.06,North,0,0.0,0.0,0,0.00,,,0.00,WUHU216HW,2013-11-13 04:12:00,
2013-11-12 23:17:00,25.4,0.0,30.07,North,0,0.0,0.0,0,0.00,,,0.00,WUHU216HW,2013-11-13 04:17:00,
2013-11-12 23:22:00,25.2,0.0,30.07,North,0,0.0,0.0,0,0.00,,,0.00,WUHU216HW,2013-11-13 04:22:00,
2013-11-12 23:27:00,25.0,0.0,30.07,North,0,0.0,0.0,0,0.00,,,0.00,WUHU216HW,2013-11-13 04:27:00,
2013-11-12 23:32:00,24.8,0.0,30.07,North,0,0.0,0.0,0,0.00,,,0.00,WUHU216HW,2013-11-13 04:32:00,
2013-11-12 23:37:00,24.8,0.0,30.07,North,0,0.0,0.0,0,0.00,,,0.00,WUHU216HW,2013-11-13 04:37:00,
2013-11-12 23:42:00,24.7,0.0,30.07,North,0,0.0,0.0,0,0.00,,,0.00,WUHU216HW,2013-11-13 04:42:00,
2013-11-12 23:47:00,24.7,0.0,30.07,North,0,0.0,0.0,0,0.00,,,0.00,WUHU216HW,2013-11-13 04:47:00,
2013-11-12 23:52:00,24.8,0.0,30.07,North,0,0.0,0.0,0,0.00,,,0.00,WUHU216HW,2013-11-13 04:52:00,
2013-11-12 23:57:00,25.0,0.0,30.07,North,0,0.0,0.0,0,0.00,,,0.00,WUHU216HW,2013-11-13 04:57:00,